Location: Unspecified
(0.0000°N, 0.0000°E)
Time: 04:10:35
(UTC+00:00)

deb Explorer IX - Visible Passes

Search period start: 05 May 2015 00:00
Search period end: 15 May 2015 00:00
Orbit: 548 x 1158 km, 38.8° (Epoch: 04 May)

Date Brightness Start Highest point End Pass type
(mag) Time Alt. Az. Time Alt. Az. Time Alt. Az.
05 May ? 05:10:10 10° N 05:13:41 14° NE 05:17:39 10° ENE visible
05 May ? 19:44:55 10° WSW 19:48:49 41° NW 19:49:19 39° NNW visible
06 May ? 04:56:09 10° N 05:00:23 17° NE 05:05:04 10° ENE visible
06 May ? 19:31:54 10° WSW 19:35:37 32° NW 19:38:34 15° NNE visible
07 May ? 04:42:15 10° N 04:47:04 19° NE 04:52:18 10° E visible
07 May ? 19:18:58 10° W 19:22:25 25° NW 19:25:55 10° NNE visible
08 May ? 04:28:27 10° N 04:33:43 22° NE 04:39:25 10° E visible
08 May ? 19:06:06 10° W 19:09:12 20° NW 19:12:16 10° N visible
09 May ? 04:14:43 10° NNW 04:20:19 25° NE 04:26:24 10° E visible
09 May ? 18:53:20 10° W 18:55:59 16° NW 18:58:31 10° N visible
10 May ? 04:01:03 10° NNW 04:06:54 29° NE 04:13:19 10° E visible
10 May ? 18:40:46 10° WNW 18:42:45 13° NW 18:44:33 10° NNW visible
11 May ? 03:47:25 10° NNW 03:53:28 33° NE 04:00:08 10° ESE visible
11 May ? 18:29:05 10° NW 18:29:30 10° NW 18:29:43 10° NW visible
12 May ? 03:34:58 15° NNW 03:40:01 37° NE 03:46:53 10° ESE visible
12 May ? 05:21:13 10° WNW 05:28:11 49° SW 05:35:29 10° SSE visible
13 May ? 03:24:27 34° N 03:26:32 43° NE 03:33:34 10° ESE visible
13 May ? 05:07:59 10° WNW 05:14:43 42° SW 05:21:49 10° SSE visible
14 May ? 03:13:49 47° ENE 03:13:49 47° ENE 03:20:11 10° ESE visible
14 May ? 04:55:55 15° W 05:01:15 36° SW 05:08:04 10° SSE visible
